SHT21C EGJB-EGLL

Flight info

Callsign SHT21C
Flight time 0h 31m
Altitude 19000
Route N0395F190 DCT ORIST L982 ROXOG ROXOG1H
Aircraft A319/M-SDE3FGIJ1KRWXY/LB1

Departure

Time 2026-04-21 13:02
Airport Guernsey Airport (EGJB)

Arrival

Time 2026-04-21 13:33
Airport London Heathrow Airport (EGLL)
Time Latitude Longitude Altitude Speed Heading
2026-04-21 12:50 49.43253 -2.59620 328 ft 0 kts 177°
2026-04-21 12:54 49.43258 -2.59620 328 ft 2 kts 177°
2026-04-21 12:55 49.43277 -2.59621 324 ft 3 kts 178°
2026-04-21 12:55 49.43297 -2.59622 326 ft 3 kts 178°
2026-04-21 12:55 49.43318 -2.59623 327 ft 3 kts 178°
2026-04-21 12:55 49.43331 -2.59624 328 ft 1 kts 178°
2026-04-21 12:56 49.43347 -2.59623 325 ft 3 kts 205°
2026-04-21 12:56 49.43357 -2.59614 327 ft 3 kts 238°
2026-04-21 12:56 49.43363 -2.59587 328 ft 3 kts 266°
2026-04-21 12:56 49.43364 -2.59559 327 ft 0 kts 267°
2026-04-21 12:58 49.43363 -2.59571 328 ft 5 kts 267°
2026-04-21 12:59 49.43359 -2.59678 321 ft 15 kts 266°
2026-04-21 12:59 49.43345 -2.59856 324 ft 19 kts 268°
2026-04-21 12:59 49.43339 -2.60065 308 ft 22 kts 266°
2026-04-21 12:59 49.43333 -2.60285 295 ft 23 kts 268°
2026-04-21 13:00 49.43324 -2.60562 297 ft 28 kts 271°
2026-04-21 13:00 49.43355 -2.60849 306 ft 27 kts 280°
2026-04-21 13:00 49.43361 -2.61111 312 ft 22 kts 267°
2026-04-21 13:00 49.43374 -2.61282 313 ft 10 kts 311°
2026-04-21 13:01 49.43428 -2.61356 316 ft 9 kts 340°
2026-04-21 13:01 49.43469 -2.61287 315 ft 14 kts 89°
2026-04-21 13:01 49.43479 -2.60820 310 ft 85 kts 87°
2026-04-21 13:01 49.43530 -2.59616 546 ft 127 kts 83°
2026-04-21 13:02 49.43567 -2.58216 1310 ft 133 kts 84°
2026-04-21 13:02 49.43603 -2.56793 2157 ft 137 kts 86°
2026-04-21 13:02 49.43694 -2.53367 3357 ft 181 kts 88°
2026-04-21 13:03 49.43749 -2.51385 4338 ft 189 kts 86°
2026-04-21 13:03 49.44212 -2.49460 5286 ft 203 kts 53°
2026-04-21 13:03 49.45503 -2.48215 5953 ft 239 kts 25°
2026-04-21 13:03 49.47187 -2.47459 6721 ft 262 kts 17°
2026-04-21 13:04 49.48996 -2.46824 7742 ft 270 kts 16°
2026-04-21 13:04 49.50856 -2.46210 8828 ft 276 kts 14°
2026-04-21 13:04 49.52753 -2.45574 9899 ft 282 kts 13°
2026-04-21 13:04 49.54718 -2.44888 10612 ft 300 kts 14°
2026-04-21 13:05 49.56797 -2.44127 11086 ft 322 kts 14°
2026-04-21 13:05 49.59013 -2.43290 11902 ft 331 kts 14°
2026-04-21 13:05 49.61267 -2.42428 12829 ft 335 kts 13°
2026-04-21 13:05 49.63543 -2.41554 13773 ft 339 kts 12°
2026-04-21 13:06 49.65845 -2.40672 14599 ft 343 kts 12°
2026-04-21 13:06 49.68170 -2.39738 15415 ft 348 kts 15°
2026-04-21 13:06 49.70370 -2.38077 16193 ft 358 kts 31°
2026-04-21 13:06 49.72234 -2.35444 16947 ft 370 kts 45°
2026-04-21 13:07 49.73907 -2.32388 17703 ft 376 kts 46°
2026-04-21 13:07 49.75615 -2.29265 18337 ft 384 kts 45°
2026-04-21 13:07 49.77369 -2.26071 18725 ft 399 kts 45°
2026-04-21 13:07 49.79201 -2.22748 19073 ft 410 kts 45°
2026-04-21 13:08 49.81048 -2.19378 19195 ft 411 kts 45°
2026-04-21 13:08 49.82905 -2.15980 19221 ft 417 kts 45°
2026-04-21 13:08 49.84791 -2.12527 19225 ft 422 kts 46°
2026-04-21 13:08 49.86690 -2.09045 19227 ft 423 kts 46°
2026-04-21 13:09 49.88589 -2.05558 19226 ft 424 kts 46°
2026-04-21 13:09 49.90491 -2.02060 19234 ft 424 kts 46°
2026-04-21 13:09 49.92391 -1.98563 19239 ft 424 kts 46°
2026-04-21 13:09 49.94290 -1.95061 19237 ft 424 kts 46°
2026-04-21 13:10 49.96163 -1.91598 19248 ft 424 kts 46°
2026-04-21 13:10 49.98082 -1.88057 19243 ft 422 kts 45°
2026-04-21 13:10 50.00137 -1.84919 19239 ft 417 kts 34°
2026-04-21 13:10 50.02548 -1.82494 19248 ft 411 kts 23°
2026-04-21 13:11 50.05102 -1.80485 19265 ft 411 kts 22°
2026-04-21 13:11 50.07648 -1.78477 19267 ft 410 kts 22°
2026-04-21 13:11 50.10189 -1.76464 19269 ft 410 kts 23°
2026-04-21 13:11 50.12674 -1.74249 19264 ft 414 kts 31°
2026-04-21 13:12 50.14926 -1.71428 19273 ft 416 kts 36°
2026-04-21 13:12 50.17147 -1.68542 19269 ft 416 kts 35°
2026-04-21 13:12 50.19372 -1.65652 19274 ft 416 kts 36°
2026-04-21 13:12 50.21596 -1.62762 19276 ft 416 kts 36°
2026-04-21 13:13 50.23820 -1.59873 19283 ft 416 kts 36°
2026-04-21 13:13 50.26117 -1.57169 19273 ft 412 kts 27°
2026-04-21 13:13 50.28676 -1.55255 19274 ft 406 kts 15°
2026-04-21 13:13 50.31363 -1.53935 19273 ft 404 kts 13°
2026-04-21 13:14 50.34049 -1.52630 19274 ft 404 kts 13°
2026-04-21 13:14 50.36734 -1.51311 19274 ft 404 kts 14°
2026-04-21 13:14 50.39421 -1.49985 19271 ft 404 kts 14°
2026-04-21 13:14 50.42104 -1.48664 19289 ft 404 kts 14°
2026-04-21 13:15 50.44756 -1.47359 19283 ft 404 kts 14°
2026-04-21 13:15 50.47438 -1.46035 19280 ft 404 kts 14°
2026-04-21 13:15 50.50125 -1.44707 19278 ft 404 kts 14°
2026-04-21 13:15 50.52810 -1.43372 19280 ft 405 kts 15°
2026-04-21 13:16 50.55385 -1.41536 19278 ft 409 kts 25°
2026-04-21 13:16 50.57885 -1.39388 19291 ft 409 kts 25°
2026-04-21 13:16 50.60380 -1.37242 19293 ft 409 kts 25°
2026-04-21 13:16 50.62875 -1.35096 19297 ft 408 kts 25°
2026-04-21 13:17 50.65367 -1.32954 19306 ft 408 kts 25°
2026-04-21 13:17 50.67859 -1.30816 19306 ft 408 kts 25°
2026-04-21 13:17 50.70351 -1.28673 19309 ft 407 kts 25°
2026-04-21 13:17 50.72834 -1.26528 19309 ft 407 kts 25°
2026-04-21 13:18 50.75321 -1.24376 19308 ft 407 kts 25°
2026-04-21 13:18 50.77782 -1.22155 19308 ft 408 kts 27°
2026-04-21 13:18 50.80193 -1.19782 19306 ft 409 kts 29°
2026-04-21 13:18 50.82567 -1.17305 19301 ft 404 kts 30°
2026-04-21 13:19 50.84840 -1.14867 19195 ft 386 kts 31°
2026-04-21 13:19 50.87025 -1.12517 18845 ft 374 kts 31°
2026-04-21 13:19 50.89167 -1.10242 18308 ft 368 kts 31°
2026-04-21 13:19 50.91288 -1.08021 17668 ft 362 kts 31°
2026-04-21 13:20 50.93350 -1.05880 17058 ft 356 kts 31°
2026-04-21 13:20 50.95419 -1.03739 16374 ft 353 kts 32°
2026-04-21 13:20 50.97470 -1.01619 15743 ft 349 kts 32°
2026-04-21 13:20 50.99492 -0.99523 15045 ft 347 kts 34°
2026-04-21 13:21 51.01317 -0.97059 14432 ft 342 kts 47°
2026-04-21 13:21 51.02889 -0.94268 13785 ft 338 kts 49°
2026-04-21 13:21 51.04446 -0.91492 13102 ft 334 kts 50°
2026-04-21 13:21 51.05982 -0.88760 12507 ft 328 kts 50°
2026-04-21 13:22 51.07498 -0.86064 11826 ft 326 kts 50°
2026-04-21 13:22 51.08997 -0.83390 11246 ft 321 kts 50°
2026-04-21 13:22 51.10461 -0.80782 10877 ft 310 kts 50°
2026-04-21 13:22 51.11875 -0.78264 10599 ft 299 kts 51°
2026-04-21 13:23 51.13225 -0.75863 10473 ft 284 kts 51°
2026-04-21 13:23 51.14515 -0.73561 10307 ft 274 kts 51°
2026-04-21 13:23 51.15766 -0.71319 10124 ft 267 kts 51°
2026-04-21 13:23 51.17185 -0.69417 9729 ft 271 kts 32°
2026-04-21 13:24 51.19001 -0.68580 9339 ft 278 kts
2026-04-21 13:24 51.20926 -0.69018 8952 ft 283 kts 350°
2026-04-21 13:24 51.22807 -0.69824 8551 ft 283 kts 349°
2026-04-21 13:24 51.24729 -0.70660 8203 ft 281 kts 349°
2026-04-21 13:25 51.26585 -0.71468 7889 ft 279 kts 349°
2026-04-21 13:25 51.28444 -0.72278 7525 ft 275 kts 350°
2026-04-21 13:25 51.30282 -0.73078 6930 ft 274 kts 350°
2026-04-21 13:25 51.32113 -0.73873 6397 ft 271 kts 350°
2026-04-21 13:26 51.33900 -0.74652 5989 ft 262 kts 349°
2026-04-21 13:26 51.35642 -0.75413 5508 ft 257 kts 350°
2026-04-21 13:26 51.37358 -0.76161 5024 ft 255 kts 351°
2026-04-21 13:26 51.39061 -0.76900 4768 ft 249 kts 350°
2026-04-21 13:27 51.40704 -0.77614 4647 ft 241 kts 351°
2026-04-21 13:27 51.42297 -0.78311 4495 ft 233 kts 351°
2026-04-21 13:27 51.43849 -0.78987 4254 ft 230 kts 351°
2026-04-21 13:27 51.45382 -0.79639 3971 ft 226 kts 354°
2026-04-21 13:28 51.46851 -0.79456 3791 ft 204 kts 33°
2026-04-21 13:28 51.47685 -0.77847 3665 ft 185 kts 77°
2026-04-21 13:28 51.47626 -0.75833 3492 ft 180 kts 96°
2026-04-21 13:28 51.47597 -0.73855 3265 ft 176 kts 87°
2026-04-21 13:29 51.47621 -0.71907 3032 ft 173 kts 87°
2026-04-21 13:29 51.47637 -0.69990 2797 ft 171 kts 88°
2026-04-21 13:29 51.47650 -0.68079 2557 ft 170 kts 88°
2026-04-21 13:29 51.47660 -0.66240 2341 ft 159 kts 88°
2026-04-21 13:30 51.47670 -0.64547 2130 ft 145 kts 88°
2026-04-21 13:30 51.47679 -0.62983 1931 ft 140 kts 87°
2026-04-21 13:30 51.47687 -0.61422 1741 ft 139 kts 87°
2026-04-21 13:30 51.47695 -0.59883 1541 ft 138 kts 88°
2026-04-21 13:31 51.47703 -0.58339 1361 ft 139 kts 87°
2026-04-21 13:31 51.47711 -0.56800 1159 ft 138 kts 89°
2026-04-21 13:31 51.47718 -0.55271 978 ft 137 kts 87°
2026-04-21 13:31 51.47725 -0.53751 780 ft 137 kts 87°
2026-04-21 13:32 51.47732 -0.52224 596 ft 136 kts 87°
2026-04-21 13:32 51.47741 -0.50642 379 ft 145 kts 89°
2026-04-21 13:32 51.47748 -0.49075 209 ft 133 kts 89°
2026-04-21 13:32 51.47752 -0.47656 96 ft 116 kts 89°
2026-04-21 13:33 51.47757 -0.46541 91 ft 72 kts 89°
2026-04-21 13:33 51.47726 -0.46164 90 ft 22 kts 147°
2026-04-21 13:33 51.47599 -0.46089 86 ft 14 kts 230°
2026-04-21 13:33 51.47595 -0.46252 88 ft 17 kts 268°
2026-04-21 13:34 51.47594 -0.46462 86 ft 21 kts 270°
2026-04-21 13:34 51.47592 -0.46696 87 ft 22 kts 269°
2026-04-21 13:34 51.47583 -0.46936 86 ft 21 kts 269°
2026-04-21 13:34 51.47584 -0.47161 88 ft 18 kts 269°
2026-04-21 13:35 51.47581 -0.47370 88 ft 16 kts 270°
2026-04-21 13:35 51.47583 -0.47568 86 ft 20 kts 271°
2026-04-21 13:35 51.47580 -0.47762 89 ft 18 kts 269°
2026-04-21 13:35 51.47580 -0.47965 86 ft 17 kts 270°
2026-04-21 13:36 51.47581 -0.48177 90 ft 20 kts 268°
2026-04-21 13:36 51.47578 -0.48392 86 ft 17 kts 270°
2026-04-21 13:36 51.47516 -0.48477 86 ft 13 kts 180°
2026-04-21 13:36 51.47439 -0.48476 86 ft 7 kts 181°
2026-04-21 13:37 51.47399 -0.48487 86 ft 5 kts 223°
2026-04-21 13:37 51.47401 -0.48546 86 ft 5 kts 274°
2026-04-21 13:37 51.47400 -0.48584 86 ft 2 kts 268°
2026-04-21 13:37 51.47400 -0.48589 86 ft 0 kts 268°